CEB281 RPMR-WADD

Flight info

Callsign CEB281
Flight time 2h 56m
Altitude 38000
Route VINE4P VINEV DCT PEDET PEDET3C
Aircraft A339/H-SADE1E2E3GHIJ3J5M1P2RWXY/LB2D1

Departure

Time 2026-04-23 07:07
Airport General Santos International Airport (RPMR)

Arrival

Time 2026-04-23 10:04
Airport Denpasar I Gusti Ngurah Rai International Airport (WADD)
Time Latitude Longitude Altitude Speed Heading
2026-04-23 06:53 6.05710 125.09956 519 ft 0 kts 83°
2026-04-23 06:57 6.05708 125.09944 519 ft 2 kts 83°
2026-04-23 06:57 6.05706 125.09929 519 ft 2 kts 83°
2026-04-23 06:57 6.05705 125.09914 519 ft 2 kts 83°
2026-04-23 06:57 6.05703 125.09899 519 ft 2 kts 101°
2026-04-23 06:58 6.05710 125.09885 519 ft 2 kts 135°
2026-04-23 06:58 6.05722 125.09877 519 ft 2 kts 166°
2026-04-23 06:58 6.05736 125.09875 519 ft 0 kts 177°
2026-04-23 06:58 6.05739 125.09875 519 ft 0 kts 177°
2026-04-23 06:59 6.05738 125.09875 519 ft 0 kts 177°
2026-04-23 07:01 6.05737 125.09875 519 ft 0 kts 176°
2026-04-23 07:01 6.05719 125.09878 519 ft 4 kts 173°
2026-04-23 07:01 6.05678 125.09882 519 ft 7 kts 173°
2026-04-23 07:02 6.05618 125.09890 519 ft 9 kts 172°
2026-04-23 07:02 6.05541 125.09899 519 ft 12 kts 173°
2026-04-23 07:02 6.05452 125.09905 519 ft 11 kts 191°
2026-04-23 07:02 6.05416 125.09850 519 ft 11 kts 260°
2026-04-23 07:03 6.05407 125.09766 519 ft 11 kts 262°
2026-04-23 07:03 6.05379 125.09688 519 ft 13 kts 224°
2026-04-23 07:03 6.05316 125.09683 519 ft 8 kts 172°
2026-04-23 07:03 6.05237 125.09690 519 ft 14 kts 175°
2026-04-23 07:04 6.05119 125.09701 519 ft 19 kts 173°
2026-04-23 07:04 6.04972 125.09719 519 ft 22 kts 173°
2026-04-23 07:04 6.04818 125.09737 519 ft 22 kts 172°
2026-04-23 07:04 6.04659 125.09757 519 ft 20 kts 173°
2026-04-23 07:05 6.04513 125.09776 519 ft 20 kts 173°
2026-04-23 07:05 6.04417 125.09797 519 ft 8 kts 157°
2026-04-23 07:05 6.04399 125.09802 519 ft 2 kts 192°
2026-04-23 07:05 6.04396 125.09799 519 ft 1 kts 214°
2026-04-23 07:06 6.04399 125.09785 519 ft 2 kts 326°
2026-04-23 07:06 6.04414 125.09785 519 ft 3 kts 358°
2026-04-23 07:06 6.04448 125.09782 519 ft 5 kts 354°
2026-04-23 07:06 6.04483 125.09778 519 ft 6 kts 354°
2026-04-23 07:07 6.04738 125.09748 520 ft 76 kts 354°
2026-04-23 07:07 6.05516 125.09653 520 ft 147 kts 354°
2026-04-23 07:07 6.06678 125.09502 857 ft 177 kts 356°
2026-04-23 07:07 6.07872 125.09453 1750 ft 168 kts 18°
2026-04-23 07:08 6.08746 125.10087 2584 ft 155 kts 58°
2026-04-23 07:08 6.09032 125.11161 2908 ft 167 kts 94°
2026-04-23 07:08 6.08562 125.12279 3164 ft 186 kts 132°
2026-04-23 07:08 6.07509 125.13159 3451 ft 202 kts 140°
2026-04-23 07:09 6.06323 125.14027 3732 ft 216 kts 141°
2026-04-23 07:09 6.05055 125.14947 4004 ft 231 kts 141°
2026-04-23 07:09 6.03718 125.15933 4311 ft 247 kts 141°
2026-04-23 07:09 6.02273 125.17009 4625 ft 264 kts 141°
2026-04-23 07:10 6.00753 125.18147 4946 ft 280 kts 141°
2026-04-23 07:10 5.99162 125.19344 5464 ft 287 kts 141°
2026-04-23 07:10 5.97564 125.20546 6085 ft 290 kts 142°
2026-04-23 07:10 5.95936 125.21774 6691 ft 293 kts 142°
2026-04-23 07:11 5.94290 125.23014 7284 ft 296 kts 142°
2026-04-23 07:11 5.92651 125.24252 7872 ft 299 kts 142°
2026-04-23 07:11 5.90924 125.25464 8465 ft 302 kts 154°
2026-04-23 07:12 5.86840 125.25582 9656 ft 303 kts 196°
2026-04-23 07:12 5.84825 125.25050 10257 ft 305 kts 196°
2026-04-23 07:12 5.82734 125.24511 10588 ft 318 kts 195°
2026-04-23 07:12 5.80536 125.23953 10852 ft 332 kts 195°
2026-04-23 07:13 5.78273 125.23383 11193 ft 343 kts 195°
2026-04-23 07:13 5.75961 125.22804 11763 ft 347 kts 195°
2026-04-23 07:13 5.73618 125.22220 12414 ft 348 kts 195°
2026-04-23 07:13 5.71257 125.21632 13043 ft 350 kts 195°
2026-04-23 07:14 5.68909 125.21046 13653 ft 352 kts 195°
2026-04-23 07:14 5.66524 125.20451 14275 ft 354 kts 195°
2026-04-23 07:14 5.64158 125.19861 14905 ft 356 kts 195°
2026-04-23 07:14 5.61759 125.19262 15521 ft 358 kts 195°
2026-04-23 07:15 5.59335 125.18658 16133 ft 360 kts 195°
2026-04-23 07:15 5.56907 125.18053 16740 ft 363 kts 195°
2026-04-23 07:15 5.54441 125.17438 17352 ft 365 kts 195°
2026-04-23 07:15 5.52011 125.16798 17949 ft 367 kts 198°
2026-04-23 07:16 5.49624 125.15886 18550 ft 369 kts 205°
2026-04-23 07:16 5.47371 125.14669 19146 ft 371 kts 212°
2026-04-23 07:16 5.45202 125.13274 19731 ft 373 kts 213°
2026-04-23 07:16 5.43048 125.11848 20289 ft 376 kts 213°
2026-04-23 07:17 5.40845 125.10386 20824 ft 380 kts 213°
2026-04-23 07:17 5.38644 125.08929 21362 ft 383 kts 213°
2026-04-23 07:17 5.36421 125.07458 21899 ft 386 kts 213°
2026-04-23 07:17 5.34182 125.05981 22423 ft 388 kts 213°
2026-04-23 07:18 5.31921 125.04491 22937 ft 391 kts 213°
2026-04-23 07:18 5.29673 125.03010 23437 ft 394 kts 213°
2026-04-23 07:18 5.27367 125.01492 23936 ft 397 kts 212°
2026-04-23 07:18 5.25054 124.99969 24419 ft 400 kts 212°
2026-04-23 07:19 5.22722 124.98434 24890 ft 403 kts 212°
2026-04-23 07:19 5.20394 124.96903 25340 ft 406 kts 212°
2026-04-23 07:19 5.18039 124.95354 25777 ft 409 kts 212°
2026-04-23 07:19 5.15632 124.93771 26207 ft 412 kts 212°
2026-04-23 07:20 5.13261 124.92212 26613 ft 415 kts 212°
2026-04-23 07:20 5.10831 124.90614 27013 ft 418 kts 212°
2026-04-23 07:20 5.08392 124.89010 27404 ft 421 kts 212°
2026-04-23 07:20 5.05936 124.87395 27783 ft 424 kts 211°
2026-04-23 07:21 5.03480 124.85789 28041 ft 431 kts 212°
2026-04-23 07:21 5.00945 124.84129 28202 ft 439 kts 212°
2026-04-23 07:21 4.98357 124.82428 28371 ft 447 kts 212°
2026-04-23 07:21 4.95769 124.80727 28643 ft 452 kts 212°
2026-04-23 07:22 4.93116 124.78982 29012 ft 455 kts 212°
2026-04-23 07:22 4.90496 124.77258 29401 ft 457 kts 212°
2026-04-23 07:22 4.87840 124.75513 29773 ft 459 kts 212°
2026-04-23 07:22 4.85172 124.73759 30133 ft 460 kts 212°
2026-04-23 07:23 4.82494 124.72001 30486 ft 462 kts 212°
2026-04-23 07:23 4.79801 124.70232 30833 ft 464 kts 212°
2026-04-23 07:23 4.77134 124.68481 31167 ft 466 kts 212°
2026-04-23 07:23 4.74408 124.66691 31501 ft 467 kts 212°
2026-04-23 07:24 4.71722 124.64927 31821 ft 469 kts 212°
2026-04-23 07:24 4.68965 124.63116 32143 ft 471 kts 212°
2026-04-23 07:24 4.66255 124.61338 32452 ft 472 kts 212°
2026-04-23 07:24 4.63518 124.59541 32757 ft 474 kts 212°
2026-04-23 07:25 4.60736 124.57715 33061 ft 475 kts 212°
2026-04-23 07:25 4.57997 124.55917 33436 ft 474 kts 212°
2026-04-23 07:25 4.55254 124.54116 33878 ft 472 kts 211°
2026-04-23 07:25 4.52527 124.52326 34314 ft 469 kts 211°
2026-04-23 07:26 4.49832 124.50558 34707 ft 468 kts 211°
2026-04-23 07:26 4.47133 124.48788 35065 ft 467 kts 211°
2026-04-23 07:26 4.44411 124.47001 35408 ft 466 kts 211°
2026-04-23 07:26 4.41726 124.45240 35736 ft 465 kts 211°
2026-04-23 07:27 4.39034 124.43474 36054 ft 464 kts 211°
2026-04-23 07:27 4.36327 124.41698 36331 ft 464 kts 211°
2026-04-23 07:27 4.33647 124.39941 36556 ft 465 kts 211°
2026-04-23 07:27 4.30928 124.38158 36760 ft 467 kts 211°
2026-04-23 07:28 4.28215 124.36379 36960 ft 468 kts 211°
2026-04-23 07:28 4.25498 124.34598 37160 ft 469 kts 211°
2026-04-23 07:28 4.22788 124.32822 37349 ft 470 kts 211°
2026-04-23 07:28 4.20060 124.31033 37536 ft 471 kts 211°
2026-04-23 07:29 4.17321 124.29237 37720 ft 473 kts 211°
2026-04-23 07:29 4.11822 124.25634 37822 ft 475 kts 211°
2026-04-23 07:30 4.06324 124.22031 37820 ft 475 kts 211°
2026-04-23 07:30 4.00811 124.18418 37807 ft 475 kts 211°
2026-04-23 07:31 3.95303 124.14809 37800 ft 475 kts 211°
2026-04-23 07:31 3.89763 124.11181 37798 ft 475 kts 211°
2026-04-23 07:32 3.84265 124.07580 37798 ft 475 kts 211°
2026-04-23 07:32 3.78751 124.03970 37803 ft 475 kts 211°
2026-04-23 07:33 3.73230 124.00355 37824 ft 475 kts 211°
2026-04-23 07:33 3.67726 123.96751 37849 ft 475 kts 211°
2026-04-23 07:34 3.62217 123.93146 37867 ft 475 kts 211°
2026-04-23 07:34 3.56704 123.89539 37875 ft 475 kts 211°
2026-04-23 07:35 3.51176 123.85922 37878 ft 475 kts 211°
2026-04-23 07:35 3.45704 123.82341 37879 ft 475 kts 211°
2026-04-23 07:36 3.40189 123.78733 37879 ft 475 kts 211°
2026-04-23 07:36 3.34654 123.75114 37879 ft 475 kts 211°
2026-04-23 07:37 3.29171 123.71528 37879 ft 475 kts 211°
2026-04-23 07:37 3.23652 123.67919 37879 ft 475 kts 211°
2026-04-23 07:38 3.18159 123.64328 37879 ft 475 kts 211°
2026-04-23 07:38 3.12618 123.60706 37879 ft 475 kts 211°
2026-04-23 07:39 3.07123 123.57114 37879 ft 475 kts 211°
2026-04-23 07:39 3.01627 123.53522 37879 ft 475 kts 211°
2026-04-23 07:40 2.96114 123.49918 37879 ft 476 kts 211°
2026-04-23 07:40 2.90573 123.46297 37879 ft 476 kts 211°
2026-04-23 07:41 2.85031 123.42677 37879 ft 477 kts 211°
2026-04-23 07:41 2.79498 123.39065 37879 ft 477 kts 211°
2026-04-23 07:42 2.73975 123.35458 37879 ft 477 kts 211°
2026-04-23 07:42 2.68397 123.31815 37878 ft 477 kts 211°
2026-04-23 07:43 2.62873 123.28208 37879 ft 477 kts 211°
2026-04-23 07:43 2.57315 123.24579 37879 ft 477 kts 211°
2026-04-23 07:44 2.51785 123.20969 37879 ft 477 kts 211°
2026-04-23 07:44 2.46250 123.17355 37879 ft 477 kts 211°
2026-04-23 07:45 2.40722 123.13747 37879 ft 477 kts 211°
2026-04-23 07:45 2.35167 123.10122 37879 ft 477 kts 211°
2026-04-23 07:46 2.29615 123.06500 37879 ft 478 kts 211°
2026-04-23 07:46 2.24070 123.02882 37879 ft 479 kts 211°
2026-04-23 07:47 2.18504 122.99250 37879 ft 479 kts 211°
2026-04-23 07:47 2.12956 122.95631 37879 ft 480 kts 211°
2026-04-23 07:48 2.07368 122.91986 37879 ft 480 kts 211°
2026-04-23 07:48 2.01795 122.88350 37879 ft 481 kts 212°
2026-04-23 07:49 1.96189 122.84693 37879 ft 481 kts 212°
2026-04-23 07:49 1.90629 122.81066 37879 ft 481 kts 212°
2026-04-23 07:50 1.85046 122.77425 37879 ft 481 kts 212°
2026-04-23 07:50 1.79430 122.73763 37879 ft 481 kts 212°
2026-04-23 07:51 1.73870 122.70139 37879 ft 481 kts 212°
2026-04-23 07:51 1.68263 122.66483 37879 ft 481 kts 212°
2026-04-23 07:52 1.62704 122.62859 37879 ft 481 kts 212°
2026-04-23 07:52 1.57112 122.59214 37879 ft 481 kts 212°
2026-04-23 07:53 1.51524 122.55571 37879 ft 481 kts 212°
2026-04-23 07:53 1.45955 122.51941 37879 ft 481 kts 212°
2026-04-23 07:54 1.40347 122.48286 37879 ft 481 kts 212°
2026-04-23 07:54 1.34790 122.44664 37879 ft 481 kts 212°
2026-04-23 07:55 1.29207 122.41024 37879 ft 481 kts 212°
2026-04-23 07:55 1.23626 122.37387 37879 ft 481 kts 212°
2026-04-23 07:56 1.18033 122.33742 37878 ft 481 kts 211°
2026-04-23 07:56 1.12445 122.30101 37879 ft 481 kts 211°
2026-04-23 07:57 1.06855 122.26459 37879 ft 481 kts 211°
2026-04-23 07:57 1.01288 122.22830 37879 ft 480 kts 211°
2026-04-23 07:58 0.95683 122.19178 37879 ft 480 kts 211°
2026-04-23 07:58 0.91214 122.16267 37879 ft 479 kts 211°
2026-04-23 07:59 0.85671 122.12656 37879 ft 479 kts 211°
2026-04-23 07:59 0.80063 122.09003 37879 ft 479 kts 211°
2026-04-23 08:00 0.74388 122.05306 37879 ft 480 kts 211°
2026-04-23 08:00 0.68711 122.01608 37879 ft 480 kts 211°
2026-04-23 08:01 0.63029 121.97907 37879 ft 480 kts 211°
2026-04-23 08:01 0.57394 121.94237 37879 ft 480 kts 211°
2026-04-23 08:02 0.51709 121.90533 37879 ft 480 kts 211°
2026-04-23 08:02 0.46141 121.86907 37879 ft 480 kts 211°
2026-04-23 08:03 0.40573 121.83281 37879 ft 480 kts 211°
2026-04-23 08:03 0.34977 121.79636 37879 ft 480 kts 211°
2026-04-23 08:04 0.29422 121.76017 37879 ft 480 kts 211°
2026-04-23 08:04 0.23843 121.72384 37879 ft 480 kts 211°
2026-04-23 08:05 0.18288 121.68766 37879 ft 480 kts 211°
2026-04-23 08:05 0.12703 121.65128 37879 ft 480 kts 211°
2026-04-23 08:06 0.07142 121.61506 37879 ft 480 kts 211°
2026-04-23 08:06 0.01597 121.57895 37879 ft 480 kts 211°
2026-04-23 08:07 -0.03981 121.54261 37879 ft 480 kts 211°
2026-04-23 08:07 -0.09549 121.50635 37879 ft 479 kts 211°
2026-04-23 08:08 -0.15116 121.47010 37879 ft 479 kts 211°
2026-04-23 08:08 -0.20716 121.43363 37879 ft 479 kts 211°
2026-04-23 08:09 -0.26265 121.39749 37878 ft 479 kts 211°
2026-04-23 08:09 -0.31834 121.36122 37878 ft 479 kts 211°
2026-04-23 08:10 -0.37416 121.32487 37877 ft 479 kts 211°
2026-04-23 08:10 -0.45776 121.27041 37878 ft 479 kts 211°
2026-04-23 08:11 -0.51330 121.23423 37878 ft 479 kts 211°
2026-04-23 08:11 -0.56918 121.19783 37878 ft 479 kts 211°
2026-04-23 08:12 -0.62464 121.16170 37875 ft 480 kts 211°
2026-04-23 08:12 -0.68058 121.12528 37864 ft 481 kts 211°
2026-04-23 08:13 -0.73655 121.08881 37839 ft 482 kts 211°
2026-04-23 08:13 -0.79242 121.05242 37809 ft 483 kts 211°
2026-04-23 08:14 -0.84849 121.01590 37786 ft 484 kts 211°
2026-04-23 08:14 -0.90470 120.97928 37775 ft 485 kts 211°
2026-04-23 08:15 -0.96106 120.94256 37772 ft 485 kts 212°
2026-04-23 08:15 -1.01718 120.90597 37772 ft 483 kts 211°
2026-04-23 08:16 -1.07303 120.86959 37772 ft 478 kts 212°
2026-04-23 08:16 -1.12823 120.83364 37772 ft 474 kts 212°
2026-04-23 08:17 -1.18348 120.79764 37771 ft 473 kts 212°
2026-04-23 08:17 -1.23831 120.76190 37772 ft 473 kts 212°
2026-04-23 08:18 -1.29316 120.72615 37773 ft 473 kts 212°
2026-04-23 08:18 -1.34783 120.69052 37774 ft 473 kts 212°
2026-04-23 08:19 -1.40301 120.65456 37778 ft 473 kts 212°
2026-04-23 08:19 -1.45794 120.61875 37783 ft 473 kts 212°
2026-04-23 08:20 -1.51251 120.58318 37784 ft 473 kts 212°
2026-04-23 08:20 -1.56742 120.54739 37783 ft 473 kts 212°
2026-04-23 08:21 -1.62250 120.51148 37779 ft 473 kts 212°
2026-04-23 08:21 -1.67747 120.47564 37778 ft 473 kts 212°
2026-04-23 08:22 -1.73244 120.43980 37782 ft 473 kts 212°
2026-04-23 08:22 -1.78706 120.40419 37786 ft 473 kts 212°
2026-04-23 08:23 -1.84232 120.36815 37788 ft 473 kts 212°
2026-04-23 08:23 -1.89698 120.33251 37790 ft 473 kts 212°
2026-04-23 08:24 -1.95176 120.29678 37793 ft 473 kts 212°
2026-04-23 08:24 -2.00699 120.26077 37795 ft 473 kts 212°
2026-04-23 08:25 -2.06276 120.22439 37796 ft 473 kts 212°
2026-04-23 08:25 -2.11810 120.18829 37796 ft 473 kts 212°
2026-04-23 08:26 -2.17358 120.15209 37796 ft 473 kts 212°
2026-04-23 08:26 -2.22912 120.11584 37796 ft 473 kts 212°
2026-04-23 08:27 -2.28457 120.07967 37796 ft 473 kts 212°
2026-04-23 08:27 -2.33995 120.04352 37796 ft 473 kts 212°
2026-04-23 08:28 -2.39539 120.00735 37796 ft 473 kts 212°
2026-04-23 08:28 -2.45074 119.97121 37796 ft 473 kts 212°
2026-04-23 08:29 -2.50619 119.93502 37796 ft 473 kts 212°
2026-04-23 08:29 -2.56152 119.89889 37796 ft 473 kts 212°
2026-04-23 08:30 -2.61714 119.86259 37842 ft 473 kts 212°
2026-04-23 08:30 -2.67261 119.82636 37929 ft 473 kts 212°
2026-04-23 08:31 -2.72790 119.79025 37972 ft 472 kts 212°
2026-04-23 08:31 -2.78322 119.75412 37988 ft 472 kts 212°
2026-04-23 08:32 -2.83848 119.71803 37994 ft 472 kts 212°
2026-04-23 08:32 -2.89395 119.68179 37995 ft 472 kts 212°
2026-04-23 08:33 -2.94925 119.64564 37995 ft 473 kts 211°
2026-04-23 08:33 -3.00441 119.60957 37996 ft 474 kts 211°
2026-04-23 08:34 -3.05986 119.57333 37996 ft 474 kts 211°
2026-04-23 08:34 -3.11552 119.53697 37996 ft 474 kts 211°
2026-04-23 08:35 -3.17112 119.50065 37996 ft 474 kts 211°
2026-04-23 08:35 -3.22677 119.46428 37996 ft 474 kts 211°
2026-04-23 08:36 -3.28246 119.42786 37996 ft 474 kts 211°
2026-04-23 08:36 -3.33810 119.39148 37996 ft 474 kts 211°
2026-04-23 08:37 -3.39372 119.35510 37996 ft 474 kts 211°
2026-04-23 08:37 -3.44908 119.31889 37995 ft 474 kts 211°
2026-04-23 08:38 -3.50505 119.28227 37996 ft 474 kts 211°
2026-04-23 08:38 -3.56057 119.24595 37996 ft 474 kts 211°
2026-04-23 08:39 -3.61614 119.20959 37996 ft 474 kts 211°
2026-04-23 08:39 -3.66059 119.18049 37996 ft 474 kts 211°
2026-04-23 08:40 -3.70952 119.14846 37996 ft 474 kts 211°
2026-04-23 08:40 -3.76522 119.11200 37996 ft 474 kts 211°
2026-04-23 08:41 -3.77893 119.10302 37996 ft 474 kts 211°
2026-04-23 08:54 -3.80394 119.08665 37996 ft 474 kts 211°
2026-04-23 08:55 -3.85977 119.05009 37996 ft 474 kts 211°
2026-04-23 08:55 -3.91526 119.01375 37996 ft 474 kts 211°
2026-04-23 08:56 -3.97080 118.97737 37996 ft 474 kts 211°
2026-04-23 08:56 -4.02659 118.94083 37996 ft 474 kts 211°
2026-04-23 08:57 -4.08234 118.90430 37996 ft 474 kts 211°
2026-04-23 08:57 -4.13784 118.86793 37996 ft 474 kts 212°
2026-04-23 08:58 -4.19338 118.83152 37996 ft 474 kts 212°
2026-04-23 08:58 -4.24870 118.79525 37996 ft 474 kts 212°
2026-04-23 08:59 -4.30429 118.75880 37996 ft 474 kts 212°
2026-04-23 08:59 -4.35976 118.72241 37996 ft 474 kts 212°
2026-04-23 09:00 -4.41538 118.68592 37996 ft 474 kts 212°
2026-04-23 09:00 -4.47105 118.64940 37996 ft 474 kts 212°
2026-04-23 09:01 -4.52626 118.61317 37996 ft 474 kts 212°
2026-04-23 09:01 -4.58186 118.57668 37996 ft 474 kts 212°
2026-04-23 09:02 -4.63743 118.54020 37996 ft 474 kts 212°
2026-04-23 09:02 -4.69305 118.50369 37996 ft 474 kts 212°
2026-04-23 09:03 -4.74852 118.46725 37996 ft 474 kts 212°
2026-04-23 09:03 -4.80414 118.43072 37996 ft 474 kts 212°
2026-04-23 09:04 -4.85933 118.39446 37996 ft 474 kts 212°
2026-04-23 09:04 -4.91419 118.35842 37996 ft 474 kts 212°
2026-04-23 09:05 -4.96960 118.32200 37995 ft 474 kts 212°
2026-04-23 09:05 -5.02526 118.28539 37995 ft 475 kts 211°
2026-04-23 09:06 -5.08124 118.24857 37995 ft 475 kts 211°
2026-04-23 09:06 -5.13710 118.21184 37996 ft 476 kts 211°
2026-04-23 09:07 -5.19295 118.17512 37996 ft 476 kts 211°
2026-04-23 09:07 -5.24848 118.13861 37996 ft 476 kts 211°
2026-04-23 09:08 -5.30410 118.10201 37996 ft 476 kts 211°
2026-04-23 09:08 -5.35955 118.06552 37996 ft 476 kts 211°
2026-04-23 09:09 -5.41458 118.02929 37996 ft 476 kts 211°
2026-04-23 09:09 -5.47021 117.99267 37996 ft 476 kts 211°
2026-04-23 09:10 -5.55352 117.93780 37996 ft 476 kts 211°
2026-04-23 09:11 -5.60938 117.90100 37996 ft 476 kts 211°
2026-04-23 09:11 -5.66527 117.86416 37996 ft 476 kts 211°
2026-04-23 09:12 -5.72094 117.82745 37996 ft 476 kts 211°
2026-04-23 09:12 -5.77693 117.79054 37996 ft 476 kts 211°
2026-04-23 09:13 -5.83352 117.75322 37996 ft 476 kts 211°
2026-04-23 09:13 -5.88924 117.71646 37996 ft 476 kts 211°
2026-04-23 09:14 -5.94441 117.68006 37996 ft 476 kts 211°
2026-04-23 09:14 -5.99980 117.64350 37996 ft 476 kts 211°
2026-04-23 09:15 -6.05562 117.60665 37996 ft 476 kts 211°
2026-04-23 09:15 -6.11117 117.56997 37996 ft 476 kts 211°
2026-04-23 09:16 -6.16683 117.53321 37996 ft 476 kts 211°
2026-04-23 09:16 -6.22243 117.49649 37996 ft 476 kts 211°
2026-04-23 09:17 -6.27822 117.45962 37996 ft 476 kts 211°
2026-04-23 09:17 -6.33382 117.42287 37996 ft 476 kts 211°
2026-04-23 09:18 -6.38638 117.38812 37996 ft 476 kts 211°
2026-04-23 09:18 -6.44167 117.35156 37996 ft 476 kts 211°
2026-04-23 09:19 -6.49747 117.31465 37995 ft 476 kts 211°
2026-04-23 09:19 -6.54876 117.28072 37996 ft 476 kts 211°
2026-04-23 09:20 -6.60390 117.24423 37918 ft 477 kts 211°
2026-04-23 09:20 -6.63185 117.22572 37387 ft 480 kts 211°
2026-04-23 09:20 -6.65991 117.20715 36799 ft 481 kts 211°
2026-04-23 09:20 -6.68792 117.18861 36215 ft 481 kts 211°
2026-04-23 09:21 -6.71607 117.16997 35589 ft 482 kts 211°
2026-04-23 09:21 -6.74435 117.15124 34974 ft 482 kts 211°
2026-04-23 09:21 -6.77236 117.13268 34369 ft 482 kts 211°
2026-04-23 09:21 -6.80039 117.11411 33762 ft 481 kts 211°
2026-04-23 09:22 -6.82853 117.09547 33155 ft 481 kts 211°
2026-04-23 09:22 -6.85664 117.07684 32625 ft 479 kts 211°
2026-04-23 09:22 -6.88437 117.05846 32245 ft 473 kts 211°
2026-04-23 09:22 -6.91157 117.04044 31864 ft 468 kts 211°
2026-04-23 09:23 -6.93875 117.02242 31487 ft 463 kts 212°
2026-04-23 09:23 -6.96554 117.00467 31114 ft 458 kts 212°
2026-04-23 09:23 -6.99223 116.98697 30739 ft 453 kts 212°
2026-04-23 09:23 -7.01733 116.97031 30382 ft 448 kts 212°
2026-04-23 09:24 -7.04348 116.95297 30009 ft 444 kts 212°
2026-04-23 09:24 -7.06935 116.93578 29636 ft 439 kts 212°
2026-04-23 09:24 -7.09471 116.91893 29268 ft 435 kts 212°
2026-04-23 09:24 -7.12013 116.90205 28894 ft 431 kts 212°
2026-04-23 09:25 -7.14509 116.88547 28527 ft 428 kts 212°
2026-04-23 09:25 -7.16968 116.86915 28162 ft 424 kts 212°
2026-04-23 09:25 -7.19423 116.85285 27795 ft 421 kts 212°
2026-04-23 09:25 -7.21745 116.83743 27445 ft 418 kts 212°
2026-04-23 09:26 -7.24201 116.82112 27078 ft 414 kts 212°
2026-04-23 09:26 -7.26591 116.80524 26717 ft 411 kts 212°
2026-04-23 09:26 -7.28970 116.78944 26358 ft 408 kts 212°
2026-04-23 09:26 -7.31341 116.77368 25999 ft 406 kts 212°
2026-04-23 09:27 -7.33735 116.75777 25634 ft 403 kts 212°
2026-04-23 09:27 -7.36069 116.74226 25278 ft 400 kts 212°
2026-04-23 09:27 -7.38395 116.72680 24920 ft 398 kts 212°
2026-04-23 09:27 -7.40707 116.71143 24564 ft 395 kts 212°
2026-04-23 09:28 -7.43027 116.69599 24205 ft 393 kts 212°
2026-04-23 09:28 -7.45307 116.68083 23851 ft 391 kts 212°
2026-04-23 09:28 -7.47549 116.66592 23499 ft 389 kts 212°
2026-04-23 09:28 -7.49781 116.64992 23144 ft 387 kts 217°
2026-04-23 09:29 -7.51859 116.63206 22833 ft 389 kts 223°
2026-04-23 09:29 -7.53790 116.61212 22835 ft 399 kts 227°
2026-04-23 09:29 -7.55649 116.59120 22862 ft 401 kts 228°
2026-04-23 09:29 -7.57520 116.56981 22889 ft 402 kts 228°
2026-04-23 09:30 -7.59377 116.54857 22915 ft 402 kts 228°
2026-04-23 09:30 -7.61266 116.52702 22939 ft 403 kts 228°
2026-04-23 09:30 -7.63138 116.50570 22930 ft 404 kts 228°
2026-04-23 09:30 -7.64994 116.48459 22907 ft 404 kts 228°
2026-04-23 09:31 -7.66899 116.46294 22887 ft 404 kts 228°
2026-04-23 09:31 -7.68758 116.44181 22873 ft 404 kts 228°
2026-04-23 09:31 -7.70659 116.42021 22865 ft 404 kts 228°
2026-04-23 09:31 -7.72541 116.39881 22859 ft 404 kts 228°
2026-04-23 09:32 -7.74425 116.37740 22856 ft 404 kts 228°
2026-04-23 09:32 -7.76286 116.35624 22855 ft 404 kts 228°
2026-04-23 09:32 -7.78183 116.33468 22853 ft 404 kts 228°
2026-04-23 09:32 -7.80063 116.31330 22853 ft 404 kts 228°
2026-04-23 09:33 -7.81774 116.29059 22847 ft 404 kts 240°
2026-04-23 09:33 -7.82858 116.26451 22851 ft 405 kts 255°
2026-04-23 09:33 -7.83272 116.23606 22857 ft 405 kts 266°
2026-04-23 09:33 -7.83415 116.20760 22855 ft 404 kts 268°
2026-04-23 09:34 -7.83525 116.17882 22852 ft 404 kts 268°
2026-04-23 09:34 -7.83636 116.15047 22851 ft 404 kts 268°
2026-04-23 09:34 -7.83757 116.12171 22850 ft 404 kts 268°
2026-04-23 09:34 -7.83883 116.09316 22847 ft 404 kts 268°
2026-04-23 09:35 -7.84013 116.06457 22836 ft 404 kts 268°
2026-04-23 09:35 -7.84146 116.03586 22565 ft 406 kts 268°
2026-04-23 09:35 -7.84279 116.00740 22132 ft 404 kts 268°
2026-04-23 09:35 -7.84414 115.97861 21737 ft 401 kts 268°
2026-04-23 09:36 -7.84546 115.95035 21365 ft 398 kts 268°
2026-04-23 09:36 -7.84676 115.92256 21005 ft 395 kts 268°
2026-04-23 09:36 -7.84807 115.89461 20643 ft 392 kts 268°
2026-04-23 09:36 -7.84934 115.86717 20285 ft 389 kts 268°
2026-04-23 09:37 -7.85063 115.83958 19924 ft 386 kts 268°
2026-04-23 09:37 -7.85188 115.81252 19567 ft 383 kts 268°
2026-04-23 09:37 -7.85314 115.78552 19210 ft 380 kts 268°
2026-04-23 09:37 -7.85438 115.75887 18855 ft 377 kts 268°
2026-04-23 09:38 -7.85563 115.73219 18700 ft 376 kts 268°
2026-04-23 09:38 -7.85688 115.70572 18725 ft 379 kts 268°
2026-04-23 09:38 -7.85815 115.67872 18752 ft 380 kts 268°
2026-04-23 09:38 -7.85941 115.65185 18778 ft 380 kts 268°
2026-04-23 09:39 -7.86068 115.62480 18804 ft 381 kts 268°
2026-04-23 09:39 -7.86192 115.59815 18817 ft 381 kts 268°
2026-04-23 09:39 -7.86315 115.57176 18823 ft 381 kts 268°
2026-04-23 09:39 -7.86441 115.54467 18825 ft 381 kts 268°
2026-04-23 09:40 -7.86567 115.51749 18826 ft 381 kts 268°
2026-04-23 09:40 -7.86691 115.49078 18826 ft 381 kts 268°
2026-04-23 09:40 -7.86813 115.46446 18827 ft 381 kts 268°
2026-04-23 09:40 -7.86934 115.43812 18827 ft 381 kts 268°
2026-04-23 09:41 -7.87058 115.41123 18827 ft 381 kts 268°
2026-04-23 09:41 -7.87182 115.38437 18827 ft 381 kts 268°
2026-04-23 09:41 -7.87306 115.35745 18827 ft 381 kts 268°
2026-04-23 09:41 -7.87429 115.33074 18826 ft 381 kts 268°
2026-04-23 09:42 -7.87554 115.30356 18827 ft 381 kts 268°
2026-04-23 09:42 -7.87676 115.27673 18827 ft 381 kts 268°
2026-04-23 09:42 -7.87799 115.24992 18827 ft 381 kts 268°
2026-04-23 09:42 -7.87922 115.22295 18827 ft 381 kts 268°
2026-04-23 09:43 -7.88045 115.19614 18827 ft 381 kts 267°
2026-04-23 09:43 -7.88424 115.16950 18823 ft 381 kts 255°
2026-04-23 09:43 -7.89394 115.14430 18820 ft 382 kts 242°
2026-04-23 09:43 -7.90816 115.12143 18640 ft 383 kts 236°
2026-04-23 09:44 -7.92355 115.09912 18206 ft 383 kts 235°
2026-04-23 09:44 -7.93907 115.07695 17815 ft 380 kts 235°
2026-04-23 09:44 -7.95426 115.05512 17447 ft 378 kts 235°
2026-04-23 09:44 -7.96928 115.03336 17089 ft 375 kts 235°
2026-04-23 09:45 -7.98436 115.01142 16730 ft 372 kts 235°
2026-04-23 09:45 -7.99897 114.99009 16382 ft 369 kts 235°
2026-04-23 09:45 -8.01372 114.96854 16029 ft 366 kts 235°
2026-04-23 09:45 -8.02818 114.94737 15682 ft 364 kts 235°
2026-04-23 09:46 -8.04269 114.92613 15331 ft 361 kts 235°
2026-04-23 09:46 -8.05695 114.90527 14987 ft 359 kts 235°
2026-04-23 09:46 -8.07124 114.88435 14701 ft 356 kts 235°
2026-04-23 09:46 -8.08551 114.86345 14708 ft 358 kts 236°
2026-04-23 09:47 -8.09976 114.84255 14726 ft 359 kts 236°
2026-04-23 09:47 -8.11408 114.82155 14717 ft 360 kts 236°
2026-04-23 09:47 -8.12844 114.80048 14381 ft 361 kts 236°
2026-04-23 09:47 -8.14260 114.77969 14005 ft 359 kts 236°
2026-04-23 09:48 -8.15685 114.75877 13644 ft 357 kts 236°
2026-04-23 09:48 -8.17096 114.73806 13292 ft 354 kts 236°
2026-04-23 09:48 -8.18510 114.71729 12940 ft 352 kts 236°
2026-04-23 09:48 -8.19897 114.69692 12596 ft 349 kts 236°
2026-04-23 09:49 -8.21269 114.67677 12253 ft 347 kts 236°
2026-04-23 09:49 -8.22634 114.65671 12023 ft 340 kts 236°
2026-04-23 09:49 -8.23968 114.63732 12009 ft 327 kts 232°
2026-04-23 09:49 -8.25666 114.62278 11988 ft 314 kts 204°
2026-04-23 09:50 -8.27764 114.61829 11876 ft 304 kts 177°
2026-04-23 09:50 -8.29828 114.62333 11335 ft 310 kts 156°
2026-04-23 09:50 -8.31819 114.63226 10932 ft 311 kts 154°
2026-04-23 09:50 -8.33788 114.64133 10705 ft 307 kts 155°
2026-04-23 09:51 -8.35751 114.65023 10480 ft 303 kts 155°
2026-04-23 09:51 -8.37634 114.65860 10265 ft 299 kts 155°
2026-04-23 09:51 -8.39537 114.66695 10011 ft 297 kts 156°
2026-04-23 09:51 -8.41440 114.67526 9727 ft 296 kts 156°
2026-04-23 09:52 -8.43340 114.68354 9443 ft 294 kts 156°
2026-04-23 09:52 -8.45217 114.69170 9165 ft 293 kts 156°
2026-04-23 09:52 -8.47053 114.69970 8894 ft 292 kts 156°
2026-04-23 09:52 -8.48895 114.70774 8622 ft 291 kts 156°
2026-04-23 09:53 -8.50722 114.71572 8353 ft 289 kts 156°
2026-04-23 09:53 -8.52586 114.72386 8079 ft 288 kts 156°
2026-04-23 09:53 -8.54429 114.73239 7804 ft 287 kts 150°
2026-04-23 09:53 -8.56115 114.74336 7529 ft 285 kts 141°
2026-04-23 09:54 -8.57654 114.75614 7265 ft 283 kts 138°
2026-04-23 09:54 -8.59114 114.76888 7008 ft 282 kts 138°
2026-04-23 09:54 -8.60609 114.78200 6744 ft 280 kts 138°
2026-04-23 09:54 -8.62107 114.79509 6482 ft 279 kts 138°
2026-04-23 09:55 -8.63583 114.80795 6224 ft 278 kts 138°
2026-04-23 09:55 -8.65059 114.82077 5967 ft 276 kts 138°
2026-04-23 09:55 -8.66527 114.83350 5711 ft 275 kts 138°
2026-04-23 09:55 -8.67997 114.84624 5486 ft 273 kts 138°
2026-04-23 09:56 -8.69433 114.85868 5300 ft 269 kts 138°
2026-04-23 09:56 -8.70860 114.87106 5118 ft 265 kts 138°
2026-04-23 09:56 -8.72277 114.88333 4941 ft 262 kts 138°
2026-04-23 09:56 -8.73670 114.89541 4767 ft 258 kts 138°
2026-04-23 09:57 -8.74942 114.90765 4512 ft 252 kts 123°
2026-04-23 09:57 -8.75652 114.92355 4298 ft 246 kts 102°
2026-04-23 09:57 -8.75788 114.93199 4133 ft 246 kts 94°
2026-04-23 09:59 -8.75826 114.94149 3947 ft 247 kts 89°
2026-04-23 09:59 -8.75758 114.95819 3598 ft 244 kts 86°
2026-04-23 09:59 -8.75663 114.97263 3331 ft 235 kts 86°
2026-04-23 10:00 -8.75567 114.98904 3056 ft 224 kts 87°
2026-04-23 10:00 -8.75496 115.00464 2779 ft 216 kts 88°
2026-04-23 10:00 -8.75436 115.01970 2505 ft 206 kts 88°
2026-04-23 10:00 -8.75382 115.03368 2255 ft 190 kts 88°
2026-04-23 10:01 -8.75331 115.04684 2032 ft 179 kts 88°
2026-04-23 10:01 -8.75282 115.05930 1780 ft 171 kts 88°
2026-04-23 10:01 -8.75234 115.07124 1562 ft 161 kts 88°
2026-04-23 10:01 -8.75191 115.08209 1366 ft 153 kts 88°
2026-04-23 10:02 -8.75147 115.09289 1174 ft 148 kts 88°
2026-04-23 10:02 -8.75105 115.10331 991 ft 149 kts 88°
2026-04-23 10:02 -8.75063 115.11376 792 ft 145 kts 89°
2026-04-23 10:02 -8.75022 115.12385 617 ft 142 kts 89°
2026-04-23 10:03 -8.74981 115.13378 426 ft 141 kts 88°
2026-04-23 10:03 -8.74934 115.14374 236 ft 141 kts 87°
2026-04-23 10:03 -8.74895 115.15363 73 ft 139 kts 88°
2026-04-23 10:03 -8.74856 115.16303 29 ft 122 kts 88°
2026-04-23 10:04 -8.74830 115.16991 27 ft 72 kts 88°
2026-04-23 10:04 -8.74816 115.17357 28 ft 41 kts 88°
2026-04-23 10:04 -8.74803 115.17625 31 ft 36 kts 87°
2026-04-23 10:04 -8.74769 115.17771 34 ft 10 kts 30°
2026-04-23 10:05 -8.74693 115.17780 34 ft 11 kts 353°
2026-04-23 10:05 -8.74642 115.17735 34 ft 9 kts 283°
2026-04-23 10:05 -8.74638 115.17664 34 ft 10 kts 267°
2026-04-23 10:05 -8.74642 115.17582 32 ft 13 kts 268°
2026-04-23 10:06 -8.74646 115.17485 31 ft 15 kts 268°
2026-04-23 10:06 -8.74648 115.17423 31 ft 15 kts 268°
2026-04-23 10:06 -8.74651 115.17335 31 ft 15 kts 268°
2026-04-23 10:06 -8.74657 115.17217 28 ft 17 kts 269°
2026-04-23 10:07 -8.74661 115.17085 27 ft 18 kts 268°
2026-04-23 10:07 -8.74666 115.16957 28 ft 17 kts 268°
2026-04-23 10:07 -8.74671 115.16840 30 ft 11 kts 268°
2026-04-23 10:07 -8.74659 115.16808 31 ft 4 kts 338°
2026-04-23 10:08 -8.74627 115.16803 31 ft 4 kts 353°
2026-04-23 10:08 -8.74592 115.16801 32 ft 5 kts 358°
2026-04-23 10:08 -8.74564 115.16801 33 ft 1 kts 359°
2026-04-23 10:09 -8.74552 115.16800 33 ft 0 kts 359°